Location: Aalen
(48.8330°N, 10.1000°E)
Time: 08:56:22
(UTC+01:00)

N. Korean satellite - Pass Details

Date: 08 December 2022
Orbit: 407 x 442 km, 97.3° (Epoch: 04 February)

Event Time Altitude Azimuth Distance (km) Brightness Sun altitude
Rises 05:01:10 0° 23° (NNE) 2,507 10.4 -28.3°
Reaches altitude 10° 05:03:31 10° 38° (NE) 1,619 9.6 -27.9°
Maximum altitude 05:06:25 24° 94° (E) 979 8.8 -27.4°
Drops below altitude 10° 05:09:16 10° 151° (SSE) 1,583 9.5 -26.9°
Sets 05:11:31 0° 166° (SSE) 2,437 10.4 -26.6°
